N2XP-3 Weather Reports


time (UTC)temp
F
wind
direction
speed
knots
gust
knots
rain 1hr
in
rain 24hr
in
rain mn
in
humidity
%
barometer
mb
20260506192554 61 301 3.5 0.9 0.00 0.01 0.00 98 1004.5
20260506191552 61 273 0.9 1.7 0.00 0.01 0.00 98 1004.8
20260506191050 61 222 3.5 0.0 0.00 0.01 0.00 98 1004.8
20260506190051 61 245 4.3 4.3 0.00 0.01 0.00 98 1004.9
20260506185546 61 208 1.7 0.9 0.00 0.01 0.00 98 1004.8
20260506185519 61 228 0.9 1.7 0.00 0.01 0.00 97 1004.9
20260506185041 61 228 0.9 1.7 0.00 0.01 0.00 97 1004.9
20260506184539 61 195 0.9 2.6 0.00 0.01 0.00 97 1004.9
20260506184029 61 242 0.0 0.0 0.00 0.01 0.00 97 1004.9
20260506183529 61 304 0.0 0.0 0.00 0.01 0.00 97 1004.9
20260506183029 61 246 0.0 0.0 0.00 0.01 0.00 97 1004.9
20260506182609 61 308 0.9 0.0 0.00 0.01 0.00 97 1004.9
20260506182517 61 308 0.9 0.0 0.00 0.01 0.00 97 1004.9
20260506182109 61 264 0.9 0.0 0.00 0.01 0.00 96 1005.0
20260506182018 61 264 0.9 0.0 0.00 0.01 0.00 96 1005.0
20260506181518 61 225 1.7 0.0 0.00 0.01 0.00 96 1005.0
20260506181015 62 294 0.9 0.0 0.00 0.01 0.00 96 1005.1
20260506180013 61 278 0.0 1.7 0.00 0.01 0.00 96 1005.1
20260506175502 62 262 1.7 0.0 0.00 0.01 0.00 95 1005.1
20260506175001 62 195 0.0 2.6 0.00 0.01 0.00 95 1005.2
20260506174501 62 263 3.5 0.0 0.00 0.01 0.00 95 1005.3
20260506173958 62 267 1.7 4.3 0.00 0.01 0.00 95 1005.3
20260506173459 62 219 0.0 0.0 0.00 0.01 0.00 95 1005.2
20260506172455 62 240 0.9 1.7 0.00 0.01 0.00 95 1005.2
20260506171956 62 250 0.0 1.7 0.00 0.01 0.00 95 1005.2
20260506171457 62 214 0.0 1.7 0.00 0.01 0.00 95 1005.3
20260506170951 62 156 0.9 0.9 0.00 0.01 0.00 95 1005.4
20260506170450 62 181 3.5 0.9 0.00 0.01 0.00 95 1005.3
20260506165950 62 255 0.0 0.0 0.00 0.01 0.00 95 1005.3
20260506165448 62 172 1.7 2.6 0.00 0.01 0.00 94 1005.3
20260506164948 63 267 0.9 2.6 0.00 0.01 0.00 93 1005.2
20260506164521 63 217 2.6 2.6 0.00 0.01 0.00 94 1005.2
20260506164449 63 217 2.6 2.6 0.00 0.01 0.00 94 1005.2
20260506164032 63 197 0.9 0.9 0.00 0.01 0.00 94 1005.3
20260506163945 63 197 0.9 0.9 0.00 0.01 0.00 94 1005.3
20260506163446 63 290 0.9 0.0 0.00 0.01 0.00 94 1005.5
20260506162947 63 187 0.9 0.9 0.00 0.01 0.00 93 1005.7
20260506162442 63 250 1.7 0.0 0.00 0.01 0.00 93 1005.9
20260506161943 63 305 0.9 2.6 0.00 0.01 0.00 92 1006.0
20260506161444 63 243 0.0 0.0 0.00 0.01 0.00 92 1006.2
20260506160938 64 243 0.0 0.0 0.00 0.01 0.00 90 1006.4
20260506160439 63 298 1.7 0.0 0.00 0.01 0.00 89 1006.4
20260506155427 64 231 2.6 0.9 0.00 0.01 0.00 88 1006.5
20260506154923 65 205 0.0 0.0 0.00 0.01 0.00 87 1006.4
20260506154418 65 329 0.9 0.0 0.00 0.01 0.00 87 1006.6
20260506153910 66 224 1.7 1.7 0.00 0.01 0.00 86 1006.7
20260506153411 66 263 0.0 4.3 0.00 0.01 0.00 86 1006.5
20260506153056 66 287 0.9 1.7 0.00 0.01 0.00 86 1006.4
20260506152408 66 287 0.9 1.7 0.00 0.01 0.00 86 1006.4
20260506152221 65 252 1.7 0.9 0.00 0.01 0.00 84 1006.4
20260506151408 65 252 1.7 0.9 0.00 0.01 0.00 84 1006.4
20260506151102 65 271 1.7 0.9 0.00 0.01 0.00 81 1006.6
20260506150517 65 271 1.7 0.9 0.00 0.01 0.00 81 1006.6
20260506150405 66 246 1.7 3.5 0.00 0.01 0.00 80 1006.6
20260506150402 65 271 1.7 0.9 0.00 0.01 0.00 81 1006.6
20260506150042 66 246 1.7 3.5 0.00 0.01 0.00 80 1006.6
20260506145858 66 246 1.7 3.5 0.00 0.01 0.00 80 1006.6
20260506145514 65 229 2.6 3.5 0.00 0.01 0.00 79 1006.7
20260506145351 66 7 4.3 1.7 0.00 0.01 0.00 79 1006.6
20260506144850 65 229 2.6 3.5 0.00 0.01 0.00 79 1006.7
20260506144350 66 323 0.0 0.0 0.00 0.01 0.00 79 1006.6
20260506143843 65 221 4.3 3.5 0.00 0.01 0.00 79 1006.6
20260506143344 65 271 4.3 1.7 0.00 0.01 0.00 78 1006.6
20260506142844 66 239 4.3 4.3 0.00 0.01 0.00 78 1006.8
20260506141839 66 233 2.6 6.1 0.00 0.01 0.00 79 1006.5
20260506141643 65 323 2.6 1.7 0.00 0.01 0.00 79 1006.5
20260506141339 65 323 2.6 1.7 0.00 0.01 0.00 79 1006.5
20260506140835 65 242 2.6 6.1 0.00 0.01 0.00 79 1006.5
20260506140336 65 231 4.3 5.2 0.00 0.01 0.00 79 1006.4
20260506135836 65 248 4.3 2.6 0.00 0.01 0.00 79 1006.5
20260506135334 65 277 4.3 6.1 0.00 0.01 0.00 79 1006.6
20260506134835 65 276 3.5 2.6 0.00 0.01 0.00 79 1006.6
20260506134335 65 159 3.5 3.5 0.00 0.01 0.00 80 1006.6
20260506133829 65 236 4.3 2.6 0.00 0.01 0.00 80 1006.7
20260506133330 65 219 2.6 4.3 0.00 0.01 0.00 79 1006.8
20260506132831 65 205 0.9 4.3 0.00 0.01 0.00 79 1006.8
20260506132328 65 197 3.5 3.5 0.00 0.01 0.00 79 1006.8
20260506131828 65 170 5.2 1.7 0.00 0.01 0.00 79 1007.0
20260506131329 65 207 2.6 6.1 0.00 0.01 0.00 79 1006.9
20260506130825 65 293 4.3 4.3 0.00 0.01 0.00 80 1006.7
20260506130325 65 252 2.6 3.5 0.00 0.01 0.00 80 1006.8
20260506125826 65 214 3.5 1.7 0.00 0.01 0.00 80 1007.0
20260506125410 65 285 2.6 7.0 0.00 0.01 0.00 81 1006.9
20260506125320 65 285 2.6 7.0 0.00 0.01 0.00 81 1006.9
20260506124820 65 128 6.1 2.6 0.00 0.01 0.00 80 1006.7
20260506124321 65 312 2.6 2.6 0.00 0.01 0.00 80 1006.6
20260506123815 65 203 5.2 1.7 0.00 0.01 0.00 81 1006.5
20260506123315 65 323 0.9 0.0 0.00 0.01 0.00 81 1006.5
20260506122816 65 271 0.9 2.6 0.00 0.01 0.00 82 1006.4
20260506122313 65 242 4.3 1.7 0.00 0.01 0.00 82 1006.6
20260506121813 64 232 4.3 3.5 0.00 0.01 0.00 83 1006.6
20260506121312 64 294 2.6 3.5 0.00 0.01 0.00 84 1006.7
20260506120758 64 236 2.6 2.6 0.00 0.01 0.00 84 1006.8
20260506114750 63 243 1.7 0.9 0.00 0.01 0.00 85 1006.9
20260506114251 63 298 1.7 3.5 0.00 0.01 0.00 85 1007.0
20260506113249 63 281 3.5 2.6 0.00 0.01 0.00 86 1006.9
20260506112750 63 207 0.0 0.0 0.00 0.01 0.00 86 1007.0
20260506112246 63 239 0.9 1.7 0.00 0.01 0.00 87 1006.9
20260506111747 62 248 2.6 2.6 0.00 0.01 0.00 87 1006.9
20260506111247 62 297 2.6 3.5 0.00 0.01 0.00 88 1006.9
20260506110742 62 188 1.7 1.7 0.00 0.01 0.00 88 1006.8
20260506110242 62 283 1.7 9.6 0.00 0.01 0.00 88 1006.9
20260506105741 62 253 4.3 1.7 0.00 0.01 0.00 89 1006.8
20260506105238 62 302 3.5 4.3 0.00 0.01 0.00 90 1006.7
20260506104737 61 193 2.6 1.7 0.00 0.01 0.00 90 1006.6
20260506104238 61 263 2.6 2.6 0.00 0.01 0.00 90 1006.6
20260506103733 61 170 1.7 0.0 0.00 0.01 0.00 91 1006.6
20260506102732 61 200 1.7 0.9 0.00 0.01 0.00 91 1006.6
20260506102228 61 312 2.6 5.2 0.00 0.01 0.00 91 1006.7
20260506101728 61 283 0.9 2.6 0.00 0.01 0.00 91 1006.7
20260506101229 60 240 1.7 3.5 0.00 0.01 0.00 91 1006.6
20260506100721 60 255 1.7 0.9 0.00 0.01 0.00 91 1006.5
20260506100221 60 308 1.7 0.9 0.00 0.01 0.00 91 1006.4
20260506095722 60 240 2.6 1.7 0.00 0.01 0.00 91 1006.5
20260506095216 60 242 4.3 3.5 0.00 0.01 0.00 91 1006.6
20260506094709 60 294 2.6 3.5 0.00 0.01 0.00 91 1006.5
20260506094210 60 297 0.0 3.5 0.00 0.01 0.00 91 1006.4
20260506093704 60 277 1.7 1.7 0.00 0.01 0.00 91 1006.4
20260506093205 60 201 1.7 0.0 0.00 0.01 0.00 91 1006.5
20260506092705 60 225 0.9 0.9 0.00 0.01 0.00 91 1006.5
20260506092151 60 210 1.7 0.0 0.00 0.01 0.00 91 1006.5
20260506091650 60 321 0.0 0.0 0.00 0.01 0.00 91 1006.6
20260506091223 59 270 3.5 5.2 0.00 0.01 0.00 91 1006.6
20260506091148 59 270 3.5 5.2 0.00 0.01 0.00 91 1006.6
20260506090641 59 236 0.0 0.0 0.00 0.01 0.00 91 1006.6
20260506090142 59 200 1.7 1.7 0.00 0.01 0.00 91 1006.6
20260506085642 59 356 0.0 0.0 0.00 0.01 0.00 91 1006.7
20260506084638 59 281 1.7 0.0 0.00 0.01 0.00 90 1006.7
20260506084138 59 264 1.7 2.6 0.00 0.01 0.00 89 1006.8
20260506083630 59 291 0.0 3.5 0.00 0.01 0.00 89 1006.8
20260506083131 59 300 0.0 4.3 0.00 0.01 0.00 89 1006.8
20260506082631 59 301 0.0 2.6 0.00 0.01 0.00 88 1006.8
20260506082127 59 210 1.7 1.7 0.00 0.01 0.00 88 1006.8
20260506081626 59 277 0.0 0.0 0.00 0.01 0.00 87 1006.8
20260506081126 59 329 0.0 0.0 0.00 0.01 0.00 87 1006.9
20260506080619 59 287 0.0 0.0 0.00 0.01 0.00 86 1006.9
20260506080118 59 287 0.0 0.0 0.00 0.01 0.00 86 1006.9
20260506073051 60 229 0.9 0.0 0.00 0.01 0.00 84 1007.0
20260506072551 60 205 1.7 1.7 0.00 0.01 0.00 83 1007.0
20260506072045 60 333 1.7 0.0 0.00 0.01 0.00 83 1007.0
20260506071546 60 236 0.0 2.6 0.00 0.01 0.00 83 1007.0
20260506071047 60 262 2.6 0.0 0.00 0.01 0.00 82 1007.0
20260506070543 60 302 1.7 2.6 0.00 0.01 0.00 82 1007.0
20260506062023 62 281 1.7 0.0 0.00 0.01 0.00 79 1007.4
20260506061524 62 245 1.7 0.9 0.00 0.01 0.00 78 1007.3
20260506060521 62 194 2.6 0.0 0.00 0.01 0.00 78 1007.4
20260506051004 62 214 0.0 1.7 0.00 0.01 0.00 75 1007.7
20260506050725 63 204 0.9 0.0 0.00 0.01 0.00 75 1007.7
20260506050458 63 204 0.9 0.0 0.00 0.01 0.00 75 1007.7
20260506045047 63 307 0.0 4.3 0.00 0.01 0.00 74 1007.8
20260506044948 63 307 0.0 4.3 0.00 0.01 0.00 74 1007.8
20260506043547 63 256 0.9 2.6 0.00 0.01 0.00 73 1007.8
20260506043439 63 256 0.9 2.6 0.00 0.01 0.00 73 1007.8
20260506042940 64 287 1.7 1.7 0.00 0.01 0.00 73 1007.8
20260506042753 64 219 0.9 0.0 0.00 0.01 0.00 73 1007.8
20260506042434 64 219 0.9 0.0 0.00 0.01 0.00 73 1007.8
20260506041929 64 318 1.7 2.6 0.00 0.01 0.00 72 1007.8
20260506041413 64 269 0.0 1.7 0.00 0.01 0.00 72 1007.8
20260506040913 64 252 2.6 2.6 0.00 0.01 0.00 71 1007.8
20260506040410 64 249 1.7 2.6 0.00 0.01 0.00 71 1007.8
20260506035910 65 281 3.5 3.5 0.00 0.01 0.00 71 1007.8
20260506035400 64 236 2.6 2.6 0.00 0.01 0.00 71 1007.8
20260506034855 64 300 0.0 5.2 0.00 0.01 0.00 70 1007.8
20260506034355 64 280 3.5 4.3 0.00 0.00 0.01 70 1007.8
20260506033856 64 262 3.5 3.5 0.00 0.00 0.01 70 1007.8
20260506033344 65 243 3.5 0.9 0.00 0.00 0.01 70 1007.8
20260506032847 65 176 3.5 0.9 0.00 0.00 0.01 69 1007.8
20260506032344 65 270 1.7 1.7 0.00 0.00 0.01 69 1007.8
20260506031836 65 257 3.5 2.6 0.00 0.00 0.01 69 1007.7
20260506031337 65 243 3.5 5.2 0.00 0.00 0.01 68 1007.8
20260506030838 65 215 4.3 3.5 0.00 0.00 0.01 67 1007.8
20260506030417 65 297 1.7 0.0 0.00 0.00 0.01 66 1007.8
20260506030335 65 297 1.7 0.0 0.00 0.00 0.01 66 1007.8
20260506025835 66 300 3.5 3.5 0.00 0.00 0.01 65 1007.8
20260506025336 66 246 1.7 0.0 0.00 0.00 0.01 65 1007.8
20260506024831 66 270 2.6 2.6 0.00 0.00 0.01 64 1007.8
20260506024325 66 326 1.7 1.7 0.00 0.00 0.01 63 1007.7
20260506024129 66 246 2.6 2.6 0.00 0.00 0.01 63 1007.7
20260506023826 66 246 2.6 2.6 0.00 0.00 0.01 63 1007.7
20260506023317 66 245 3.5 2.6 0.00 0.00 0.01 62 1007.7
20260506022909 66 249 1.7 0.9 0.00 0.00 0.01 61 1007.7
20260506022818 66 249 1.7 0.9 0.00 0.00 0.01 61 1007.7
20260506022319 67 259 2.6 2.6 0.00 0.00 0.01 60 1007.7
20260506021810 67 245 3.5 1.7 0.00 0.00 0.01 59 1007.6
20260506021311 67 228 3.5 3.5 0.00 0.00 0.01 59 1007.6
20260506020812 67 233 4.3 1.7 0.00 0.00 0.01 59 1007.6
20260506020306 67 233 5.2 2.6 0.00 0.00 0.01 58 1007.5
20260506015807 67 231 1.7 2.6 0.00 0.00 0.01 58 1007.5
20260506015305 68 143 1.7 0.9 0.00 0.00 0.01 58 1007.5
20260506014759 68 266 3.5 2.6 0.00 0.00 0.01 57 1007.4
20260506014300 68 277 3.5 7.0 0.00 0.00 0.01 58 1007.5
20260506013757 68 257 2.6 0.9 0.00 0.00 0.01 57 1007.3
20260506012809 68 15 2.6 3.5 0.00 0.00 0.01 56 1007.3
20260506012253 68 15 2.6 3.5 0.00 0.00 0.01 56 1007.3
20260506011351 68 281 1.7 2.6 0.00 0.00 0.01 56 1007.1
20260506011250 68 281 1.7 2.6 0.00 0.00 0.01 56 1007.1
20260506010747 68 288 1.7 2.6 0.00 0.00 0.01 56 1007.1
20260506010244 68 200 1.7 3.5 0.00 0.00 0.01 55 1007.0
20260506005740 68 273 0.0 0.9 0.00 0.00 0.01 55 1006.9
20260506005241 68 243 3.5 2.6 0.00 0.00 0.01 54 1006.9
20260506004733 69 260 1.7 3.5 0.00 0.00 0.01 53 1006.9
20260506004234 69 297 2.6 0.9 0.00 0.00 0.01 52 1006.8
20260506003735 69 256 0.9 0.9 0.00 0.00 0.01 52 1006.8
20260506002725 69 259 2.6 0.9 0.00 0.00 0.01 50 1006.7
20260506002224 70 267 0.9 3.5 0.00 0.00 0.01 49 1006.6
20260506001721 70 290 1.7 1.7 0.00 0.00 0.01 49 1006.6
20260506001222 70 287 3.5 3.5 0.00 0.00 0.01 49 1006.5
20260506000720 70 276 3.5 0.9 0.00 0.00 0.01 48 1006.4
20260506000213 71 205 0.0 0.0 0.00 0.00 0.01 48 1006.4
20260505235714 71 249 3.5 1.7 0.00 0.00 0.01 47 1006.4
20260505235214 72 256 2.6 1.7 0.00 0.00 0.01 46 1006.4
20260505234711 72 90 3.5 0.0 0.00 0.00 0.01 46 1006.3
20260505233709 73 229 1.7 2.6 0.00 0.00 0.01 44 1006.3
20260505233206 73 0 5.2 3.5 0.00 0.00 0.01 43 1006.3
20260505232707 74 236 3.5 3.5 0.00 0.00 0.01 43 1006.1
20260505232255 74 224 3.5 2.6 0.00 0.00 0.01 42 1006.1
20260505232204 74 224 3.5 2.6 0.00 0.00 0.01 42 1006.1
20260505231756 74 231 2.6 6.1 0.00 0.00 0.01 42 1006.1
20260505231753 74 291 2.6 5.2 0.00 0.00 0.01 42 1006.0
20260505231701 74 231 2.6 6.1 0.00 0.00 0.01 42 1006.1
20260505231201 74 291 2.6 5.2 0.00 0.00 0.01 42 1006.0
20260505230152 75 267 7.0 3.5 0.00 0.00 0.01 40 1005.9
20260505225653 75 158 6.1 2.6 0.00 0.00 0.01 40 1005.9
20260505225150 75 256 4.3 4.3 0.00 0.00 0.01 40 1005.8
20260505224647 75 114 3.5 0.9 0.00 0.00 0.01 40 1005.8
20260505221140 78 305 6.1 6.1 0.00 0.00 0.01 37 1005.6
20260505220640 78 259 4.3 8.7 0.00 0.00 0.01 36 1005.7
20260505220131 79 291 4.3 10.4 0.00 0.00 0.01 35 1005.6
20260505215626 79 186 6.1 6.1 0.00 0.00 0.01 35 1005.5
20260505215228 79 210 6.1 3.5 0.00 0.00 0.01 35 1005.5
20260505215128 79 210 6.1 3.5 0.00 0.00 0.01 35 1005.5
20260505214623 79 201 7.8 7.0 0.00 0.00 0.01 35 1005.5
20260505214122 79 283 4.3 1.7 0.00 0.00 0.01 35 1005.4
20260505213621 79 13 4.3 4.3 0.00 0.00 0.01 36 1005.5
20260505213116 79 231 7.8 8.7 0.00 0.00 0.01 35 1005.5
20260505212617 79 229 7.0 3.5 0.00 0.00 0.01 35 1005.4
20260505211613 80 346 3.5 1.7 0.00 0.00 0.01 34 1005.3
20260505210100 80 271 4.3 5.2 0.00 0.00 0.01 33 1005.0
20260505205651 81 235 4.3 10.4 0.00 0.00 0.01 33 1005.1
20260505205558 81 235 4.3 10.4 0.00 0.00 0.01 33 1005.1
20260505205059 81 290 6.1 7.0 0.00 0.00 0.01 33 1005.2
20260505204554 82 257 3.5 3.5 0.00 0.00 0.01 33 1005.0
20260505203556 82 260 4.3 3.5 0.00 0.00 0.01 34 1005.0
20260505203051 82 225 5.2 4.3 0.00 0.00 0.01 33 1005.1
20260505202553 82 271 4.3 3.5 0.00 0.00 0.01 33 1005.3
20260505202049 82 264 8.7 11.3 0.00 0.00 0.01 32 1005.1
20260505201923 83 246 5.2 2.6 0.00 0.00 0.01 32 1005.2
20260505201543 83 304 7.8 4.3 0.00 0.00 0.01 32 1005.2
20260505201044 83 246 5.2 2.6 0.00 0.00 0.01 32 1005.2
20260505194710 84 170 7.8 7.0 0.00 0.00 0.01 34 1005.3
20260505194534 84 170 7.8 7.0 0.00 0.00 0.01 34 1005.3
20260505194033 84 270 5.2 6.1 0.00 0.00 0.01 34 1005.3
20260505193534 84 243 5.2 5.2 0.00 0.00 0.01 34 1005.5
20260505193030 84 238 7.0 7.8 0.00 0.00 0.01 33 1005.5